Find POPACS 1

NORAD ID: 39268 Int'l Des: 2013-055 Owner: POPACS Country: US decayed
LEOPOLAR

Historical Track — Jan 26, 2026

3D地球を読み込み中...

POPACS 1について

説明を読み込み中...

高度履歴

Loading altitude history...

軌道要素

1 39268U 13055D 26021.81096740 .01425461 -86095-6 68470-3 0 9994
2 39268 80.9441 157.9048 0049078 258.9893 100.5867 16.18153837649966
Epoch: Jan 21, 2026 • Age: 2613 hours

現在のステータス

Position data unavailable
打ち上げ日 Sep 29, 2013
運用期間 12.6 years
落下予定日 Jan 26, 2026
タイプ other

技術仕様

分類 Payload
質量 1.00 kg
乾燥質量 1.00 kg
総質量 1.00 kg
長さ 0.10 m
直径 0.10 m
スパン 0.10 m
形状 Sphere
製造者 PSC
バスタイプ POPACS
フェーズステータス Reentered
所有者/国 POPACS/US

Most Searched